STARLINK-34636

Last updated on Tue Aug 26 2025 00:02:05 GMT+0000 (Coordinated Universal Time)

1 64915U 25157M 25237.38177388 -.00324233 00000+0 -69941-2 0 9998 2 64915 53.1608 188.4692 0001925 29.1604 330.9510 15.45219155 5911
UTC large
Height (km)
Speed (km/s)
/
Latitude / Longitude
Inclination (degrees)
Orbital Period (minutes)
Azimuth
Elevation
Range (km)
Doppler Factor

Next 0 passes for location: London (51.5072 / 0.1276)

Sorry there are no passes over London.